TimeEDT,TemperatureF,Dew PointF,Humidity,Sea Level PressureIn,VisibilityMPH,Wind Direction,Wind SpeedMPH,Gust SpeedMPH,PrecipitationIn,Events,Conditions,WindDirDegrees,DateUTC
12:53 AM,43.0,26.1,51,30.13,10.0,Calm,Calm,-,N/A,,Clear,0,2014-04-01 04:53:00
1:53 AM,41.0,27.0,57,30.12,10.0,North,8.1,-,N/A,,Clear,360,2014-04-01 05:53:00
2:53 AM,37.9,27.0,65,30.12,10.0,North,4.6,-,N/A,,Clear,10,2014-04-01 06:53:00
3:53 AM,37.0,26.1,65,30.12,10.0,Calm,Calm,-,N/A,,Clear,0,2014-04-01 07:53:00
4:53 AM,32.0,25.0,75,30.12,10.0,North,4.6,-,N/A,,Clear,360,2014-04-01 08:53:00
5:53 AM,30.9,25.0,79,30.13,10.0,Calm,Calm,-,N/A,,Clear,0,2014-04-01 09:53:00
6:53 AM,30.9,25.0,79,30.15,10.0,West,4.6,-,N/A,,Clear,270,2014-04-01 10:53:00
7:53 AM,34.0,28.0,79,30.17,10.0,Calm,Calm,-,N/A,,Clear,0,2014-04-01 11:53:00
8:53 AM,39.9,28.9,65,30.16,10.0,WNW,4.6,-,N/A,,Clear,300,2014-04-01 12:53:00
9:53 AM,44.1,28.0,53,30.14,10.0,East,3.5,-,N/A,,Clear,80,2014-04-01 13:53:00
10:53 AM,48.9,28.9,46,30.14,10.0,Variable,6.9,-,N/A,,Clear,0,2014-04-01 14:53:00
11:53 AM,48.9,28.9,46,30.12,10.0,Variable,3.5,-,N/A,,Clear,0,2014-04-01 15:53:00
12:53 PM,53.1,30.9,43,30.09,10.0,West,6.9,-,N/A,,Clear,260,2014-04-01 16:53:00
1:53 PM,55.9,30.9,39,30.06,10.0,WSW,9.2,-,N/A,,Clear,240,2014-04-01 17:53:00
2:53 PM,57.0,32.0,39,30.02,10.0,Variable,3.5,-,N/A,,Clear,0,2014-04-01 18:53:00
3:53 PM,59.0,32.0,36,29.99,10.0,West,8.1,-,N/A,,Mostly Cloudy,260,2014-04-01 19:53:00
4:53 PM,59.0,32.0,36,29.98,10.0,Calm,Calm,-,N/A,,Partly Cloudy,0,2014-04-01 20:53:00
5:53 PM,60.1,32.0,35,29.96,10.0,SSE,6.9,-,N/A,,Clear,160,2014-04-01 21:53:00
6:53 PM,55.9,36.0,47,29.98,10.0,SE,8.1,-,N/A,,Clear,140,2014-04-01 22:53:00
7:53 PM,53.1,34.0,48,30.00,10.0,South,11.5,-,N/A,,Clear,170,2014-04-01 23:53:00
8:53 PM,50.0,34.0,54,30.02,10.0,SSE,8.1,-,N/A,,Clear,160,2014-04-02 00:53:00
9:53 PM,44.1,34.0,68,30.02,10.0,Calm,Calm,-,N/A,,Clear,0,2014-04-02 01:53:00
10:53 PM,46.0,34.0,63,30.01,10.0,SSE,8.1,-,N/A,,Clear,150,2014-04-02 02:53:00
11:53 PM,43.0,34.0,71,30.02,10.0,East,3.5,-,N/A,,Clear,90,2014-04-02 03:53:00